Location: ??
(35.5052°N, 139.7262°E)
Time: 02:14:33
(UTC+00:00)

PAYLOAD A - Pass Details

Date: 20 June 2021
Orbit: 692 x 831 km, 98.4° (Epoch: 26 July)

Event Time Altitude Azimuth Distance (km) Brightness Sun altitude
Rises 18:33:31 0° 9° (N) 3,213 8.0 -9.7°
Reaches altitude 10° 18:35:47 10° 6° (N) 2,305 7.2 -9.3°
Maximum altitude 18:40:50 66° 285° (WNW) 855 4.1 -8.5°
Drops below altitude 10° 18:46:02 10° 204° (SSW) 2,376 6.0 -7.7°
Enters shadow 18:47:24 - 203° (SSW) 2,912 6.5 -7.4°
